User: anonymous   Login
Location: ?
(35.4214°N, 139.3011°E)
Time: 12:38:35
(UTC+00:00)
Language:

Cosmos 923 Rocket - Orbit

View from above orbital plane
View from above orbital plane
View from above satellite
View from above satellite

Ground track
Ground track

The orbit data is extracted from the following two-line orbital elements,

1 10121U 77059B   20262.65829037 +.00000086 +00000-0 +38395-4 0  9991
2 10121 074.0458 109.9178 0018775 171.1838 188.9649 14.35956521260359
Epoch (UTC): 18 September 2020 15:47:56
Eccentricity: 0.0018775
inclination: 74.0458°
perigee height: 758 km
apogee height: 785 km
right ascension of ascending node: 109.9178°
argument of perigee: 171.1838°
revolutions per day: 14.35956521
mean anomaly at epoch: 188.9649°
orbit number at epoch: 26035

The dashed part of the orbit path shows where the satellite is in the earth's shadow,  

DLR